Lapse_Rate
9.5 6.6 5.2 5.9 6.0 6.0 6.2 6.3 6.1 6.6 6.3 6.1 6.0 5.9 5.9 6.4 6.8 6.7 6.4 6.4 6.1 6.6 7.3 6.6 6.1 5.9 5.7 5.4 5.2 5.0 5.1 5.3 5.0 5.1 5.5 5.9 6.4 6.4 6.5 6.8 8.6 7.6 6.7
9.8 6.9 5.3 5.7 6.0 6.0 6.2 5.8 6.0 6.2 6.3 6.2 6.2 5.8 6.2 6.7 6.4 6.3 5.9 6.0 6.4 6.4 7.2 6.7 5.9 5.8 5.5 5.3 5.2 5.2 5.2 5.2 5.3 5.3 6.1 6.5 6.3 6.4 6.5 6.4 6.5 6.7 6.3
9.8 8.4 6.2 5.4 5.8 5.9 6.0 5.9 5.9 6.0 6.0 6.0 5.9 5.9 6.4 6.4 6.2 6.2 5.7 5.7 6.0 6.5 7.3 6.3 5.5 5.1 4.9 4.9 5.2 5.2 5.0 4.9 5.4 6.3 6.4 8.5 7.6 6.2 6.3 6.5 6.5 6.7 6.5
9.9 9.3 9.0 5.4 5.6 5.8 5.6 5.7 5.7 5.7 5.4 5.4 5.6 6.1 6.5 6.5 6.3 6.3 5.5 5.6 5.5 5.5 6.0 5.5 5.1 4.6 4.7 4.9 5.1 5.1 5.0 5.3 5.9 6.0 8.9 8.6 8.5 6.8 6.6 7.0 7.0 6.8 6.6
10.0 9.6 8.1 5.6 5.6 5.4 5.6 5.5 5.8 5.6 5.0 4.8 5.4 5.9 6.3 6.6 6.3 5.7 5.0 4.7 4.7 5.0 5.2 4.9 4.6 4.5 4.7 4.8 4.9 4.8 4.6 5.4 6.9 8.7 8.1 7.5 8.7 6.2 6.0 5.8 6.3 6.3 6.3
10.0 9.7 6.0 5.9 5.7 5.3 5.0 5.5 5.7 5.1 5.0 4.8 5.5 5.9 6.0 6.3 6.3 5.3 4.5 4.1 4.2 4.3 4.4 4.3 4.2 4.3 4.4 4.6 4.7 4.6 4.5 5.0 6.4 9.6 9.6 8.6 6.5 5.6 5.3 5.2 5.0 5.2 5.3
10.0 9.3 8.1 6.2 5.7 5.3 5.3 5.2 5.1 4.9 5.1 5.0 5.3 6.0 6.3 6.2 6.3 5.0 4.3 3.9 3.9 3.9 3.8 3.9 4.1 4.2 4.3 4.3 4.4 4.2 4.2 5.5 9.4 9.6 9.6 8.5 5.5 5.3 5.0 4.7 4.4 4.4 4.5
9.9 9.5 8.0 6.0 5.9 5.6 5.5 5.3 5.0 4.6 4.9 5.8 6.9 6.3 6.5 6.5 6.7 4.3 4.2 3.9 3.9 4.0 4.0 4.0 4.0 4.1 4.1 4.2 4.2 4.1 4.1 4.6 9.0 9.6 9.6 6.7 4.9 4.9 4.7 4.4 4.3 4.1 3.9
9.8 9.6 9.2 7.3 6.1 5.5 5.7 5.4 5.1 4.5 4.4 5.1 7.3 6.7 6.6 6.6 7.1 5.0 4.4 4.1 3.9 3.8 3.7 3.7 3.7 3.6 3.6 3.6 3.5 3.6 3.7 4.8 7.9 9.1 9.7 8.5 5.1 5.0 4.7 4.5 4.3 4.0 3.8
9.4 9.3 8.8 8.4 8.2 7.4 6.9 5.4 5.2 4.5 4.2 3.9 4.2 5.0 5.2 4.9 4.4 3.6 3.9 3.5 3.2 3.2 3.2 3.3 3.5 3.5 3.5 3.4 3.4 3.4 3.6 4.9 9.0 9.1 9.6 6.1 4.6 5.0 4.8 4.6 4.5 4.3 3.9
8.2 8.6 8.4 9.0 8.9 8.7 9.0 6.2 5.1 4.4 3.8 3.9 4.3 4.6 5.7 8.6 5.7 5.1 3.1 3.3 3.1 2.9 3.0 3.1 3.1 3.1 3.0 3.3 3.3 3.3 3.9 8.6 9.7 9.6 9.6 5.4 4.7 5.2 4.8 4.5 4.3 4.3 4.1
8.1 8.0 8.6 8.7 8.7 8.6 8.8 7.3 8.8 6.9 6.5 6.4 6.4 5.7 9.0 9.6 9.4 8.0 3.9 2.8 2.8 2.9 2.8 3.0 3.2 3.3 3.9 8.3 5.8 4.3 6.0 9.6 9.6 9.4 8.8 5.2 4.6 5.1 5.1 4.7 4.5 4.3 4.2
7.6 9.1 8.2 8.0 8.7 8.4 8.8 8.9 9.6 9.5 9.6 9.6 9.6 9.5 9.6 9.4 7.0 6.2 6.1 4.6 4.8 3.2 5.1 3.9 4.1 5.2 9.5 8.3 8.5 8.8 8.7 8.0 9.2 9.5 8.0 5.6 4.6 5.1 5.8 5.1 4.9 4.7 4.5
8.6 7.7 8.8 9.5 8.9 8.8 8.6 8.3 9.6 9.7 9.6 9.7 9.6 9.6 9.6 9.2 8.5 9.6 9.5 9.0 7.6 8.6 8.8 9.4 9.6 9.7 9.5 8.6 8.9 9.2 9.5 8.5 9.1 9.5 8.9 6.0 4.7 4.8 5.7 6.4 5.5 5.1 4.9
7.4 7.9 7.5 8.3 8.9 9.0 8.7 9.1 8.8 9.5 9.6 9.6 9.6 9.5 9.6 9.6 9.7 9.4 9.5 9.5 9.5 9.6 9.5 9.6 9.6 9.7 9.7 9.7 9.7 9.6 9.7 9.7 9.7 9.5 8.8 6.2 5.6 4.7 5.1 5.9 6.6 5.9 5.3
8.1 8.4 8.5 8.7 9.0 9.1 9.2 8.8 9.6 9.6 9.6 9.6 9.6 9.5 9.5 9.6 9.4 9.2 9.5 9.0 9.2 8.8 9.3 9.6 9.7 9.7 9.7 9.7 9.7 9.7 9.7 9.6 9.6 9.5 9.0 8.1 6.0 5.6 4.6 5.3 6.0 6.5 6.8
8.8 9.2 9.3 9.4 9.2 9.2 8.2 8.8 9.6 9.6 9.6 9.6 9.6 9.6 9.1 8.3 8.2 8.4 8.9 9.7 9.5 9.5 9.4 9.6 9.6 9.6 9.6 9.6 9.7 9.7 9.7 9.7 9.6 9.6 9.6 8.9 7.4 5.3 5.5 5.0 5.7 6.2 6.7
9.2 9.0 9.3 9.5 9.3 9.0 9.3 9.2 9.4 9.5 9.6 9.6 9.6 9.5 9.5 9.3 8.0 8.2 8.5 8.8 9.4 9.5 9.5 9.6 9.6 9.5 9.5 9.5 9.5 9.6 9.7 9.6 9.6 9.6 9.6 9.4 8.8 8.1 6.2 5.5 5.1 5.8 6.3
9.2 9.2 7.5 8.2 8.1 8.7 9.3 9.1 9.1 9.4 9.5 9.6 9.6 9.5 9.5 9.4 8.7 8.1 9.0 9.4 9.5 9.5 9.5 9.5 9.4 9.4 9.0 9.0 8.9 9.0 8.9 9.4 9.7 9.6 9.6 9.6 9.5 9.1 8.1 7.9 6.0 5.4 5.2
9.3 9.4 9.1 8.1 7.7 8.5 8.1 8.6 8.4 8.6 9.2 9.4 9.6 9.6 9.6 9.5 9.4 8.7 9.2 9.4 9.4 9.2 8.9 8.8 8.6 8.4 8.0 8.6 8.7 9.1 9.4 9.4 9.5 9.6 9.6 9.5 9.6 9.4 9.0 7.8 7.3 6.1 5.6
9.0 8.9 9.3 9.0 7.7 8.5 8.8 8.6 8.2 7.9 8.2 8.8 9.3 9.3 9.2 9.3 9.5 9.0 8.2 9.0 8.3 8.3 8.7 8.5 8.6 8.3 8.4 7.9 7.9 7.7 7.7 8.5 9.0 8.5 8.6 9.0 9.5 9.0 7.9 7.5 7.4 7.5 8.0
9.0 8.6 8.6 9.2 8.8 8.1 9.1 8.9 8.9 8.8 9.1 9.3 8.9 8.9 8.8 8.5 7.8 7.7 7.9 7.2 7.1 6.9 7.4 7.4 6.4 6.7 6.7 6.5 6.4 7.2 7.2 8.3 8.7 8.1 8.4 8.8 8.3 9.1 8.8 8.4 8.3 8.3 8.1
7.7 7.2 6.7 6.8 6.6 8.0 8.1 9.0 7.9 6.4 5.7 6.4 7.3 7.4 7.5 6.6 6.9 5.8 5.1 4.6 4.4 4.6 4.6 4.9 5.0 4.9 6.0 6.1 6.6 6.6 6.8 7.2 7.5 6.8 7.2 8.1 8.7 8.6 9.0 7.4 7.5 7.8 7.6
6.1 4.9 4.6 5.1 4.9 4.7 4.8 5.6 5.4 6.2 6.9 8.2 7.8 6.9 4.9 4.6 4.9 4.9 4.9 5.0 5.0 4.7 4.5 4.5 4.3 4.7 5.4 6.5 6.7 6.1 6.8 6.5 7.2 7.3 7.8 8.0 7.5 8.1 8.1 7.7 7.7 8.7 7.9
4.9 3.3 3.8 4.0 4.0 3.7 4.1 5.2 5.6 6.0 6.5 5.7 5.2 5.1 5.3 4.5 3.8 3.6 3.8 4.1 4.4 4.9 5.0 5.1 5.2 5.3 5.1 5.3 6.8 7.5 6.6 6.3 5.2 5.0 6.5 6.3 7.3 7.1 7.9 9.0 9.0 9.5 8.6
4.6 3.8 3.4 3.6 3.6 3.6 4.4 5.1 5.7 6.0 5.5 4.8 4.5 5.0 5.5 5.1 4.2 3.6 3.4 4.0 4.1 4.5 4.6 4.9 4.8 4.9 4.7 4.8 4.7 6.8 7.2 6.8 5.4 4.5 4.9 6.4 6.3 6.4 7.6 8.0 9.0 7.8 6.1
Wind_Speed
14 21 20 19 17 17 15 13 15 14 11 11 11 10 11 12 13 15 14 15 15 16 17 17 18 18 18 18 16 16 16 15 14 12 13 15 13 12 12 14 15 13 11
18 23 20 19 17 16 16 14 15 13 12 10 10 11 11 13 15 15 14 13 13 14 15 16 17 17 17 16 15 15 14 13 8 5 8 16 12 8 11 13 14 11 9
18 23 22 19 18 15 16 16 16 13 11 10 11 11 11 16 16 15 13 13 13 13 13 14 15 15 15 13 13 13 13 10 4 2 4 11 20 15 12 11 12 13 11
18 22 22 19 18 17 19 17 15 13 11 10 11 10 11 16 15 14 13 13 13 13 12 14 14 15 13 12 11 12 10 7 3 6 12 14 17 16 13 14 18 20 17
17 20 22 18 19 20 18 17 15 12 11 11 10 9 14 15 15 14 14 14 13 12 12 13 13 13 12 12 11 10 9 7 10 8 17 13 12 14 14 16 14 14 14
16 19 22 18 19 18 20 16 13 11 11 11 10 9 10 16 15 14 14 13 12 12 12 12 12 12 12 10 11 10 8 9 14 10 10 11 13 12 13 13 14 13 11
15 22 19 19 19 20 17 15 12 10 11 11 9 8 8 16 16 14 13 12 12 11 11 10 10 10 11 10 8 6 5 8 9 8 8 13 11 12 12 13 13 13 12
15 19 18 19 20 17 15 13 11 9 10 6 11 12 7 15 16 14 11 10 10 10 10 9 8 8 7 7 6 4 3 7 3 7 6 10 8 10 11 11 11 12 11
15 15 17 17 18 16 13 12 10 9 8 7 11 15 10 15 12 12 9 8 8 8 8 7 6 5 5 5 5 4 2 7 8 6 4 11 6 7 8 9 9 11 11
14 9 13 17 17 16 13 9 10 9 9 9 12 13 12 11 12 12 9 7 7 6 6 5 4 3 3 3 2 2 2 7 4 1 2 7 4 3 5 6 7 8 9
9 10 9 14 14 14 13 11 10 9 9 10 10 10 11 10 9 8 9 8 5 5 5 4 3 2 2 3 3 2 5 8 3 3 3 7 2 1 1 3 4 5 6
10 9 7 8 12 12 11 12 11 11 11 13 11 11 11 6 6 3 8 5 4 4 4 4 3 4 6 6 8 6 9 3 3 4 2 4 1 3 3 1 1 2 3
10 9 8 7 13 12 9 9 9 10 9 9 11 11 7 6 6 7 9 8 8 8 8 8 8 9 6 4 3 5 4 5 6 3 1 3 4 5 6 5 3 1 1
13 12 13 11 6 12 9 9 9 8 8 8 9 9 7 7 5 6 6 5 5 7 7 6 6 5 5 6 7 6 5 6 6 5 4 5 5 7 8 7 7 5 3
6 5 6 8 9 8 8 8 6 9 8 9 8 9 7 6 5 6 5 5 5 5 6 6 6 6 6 7 6 7 7 7 8 6 7 8 7 9 10 10 9 8 7
9 12 13 13 10 9 9 8 8 9 10 9 9 8 9 6 6 5 5 5 6 7 7 7 7 6 5 7 6 8 8 8 8 7 8 7 10 10 12 13 13 12 11
11 12 12 11 9 12 10 8 10 8 8 8 9 10 10 9 7 6 5 4 7 7 8 8 8 8 6 7 7 9 9 9 9 10 9 9 8 13 14 15 15 15 14
10 11 10 9 11 8 7 7 7 8 9 9 10 9 10 10 9 8 6 5 7 7 8 6 6 6 6 6 6 7 6 9 10 12 10 11 9 10 12 16 16 17 17
9 11 11 10 10 9 7 5 7 9 8 9 9 9 9 10 10 9 7 7 8 8 7 6 6 7 6 6 6 6 5 7 7 10 12 12 12 10 9 9 15 16 17
8 10 11 10 10 10 8 6 4 6 7 11 10 10 10 10 10 9 9 9 9 6 7 7 8 7 4 7 7 8 7 6 6 6 8 11 11 8 7 9 9 11 18
7 8 10 11 10 9 7 6 6 6 6 6 9 11 10 9 9 9 8 8 8 7 8 9 8 7 6 7 6 6 8 9 7 6 6 7 6 4 5 7 8 8 8
8 10 9 10 10 10 7 5 6 6 7 6 7 9 10 10 10 9 7 6 4 4 8 7 5 4 4 4 3 4 4 7 7 6 3 2 4 4 3 5 6 7 6
8 7 8 8 7 7 8 5 1 2 2 2 3 4 5 4 6 4 4 3 2 2 3 4 4 4 4 2 4 3 3 4 3 2 3 3 4 3 3 5 6 6 6
7 4 6 6 7 5 5 6 8 5 6 4 1 2 2 2 2 3 4 5 5 3 5 5 5 5 5 7 4 5 7 1 4 5 2 2 3 1 2 2 5 1 2
7 6 6 7 6 6 6 6 6 7 1 2 2 3 3 2 0 1 2 3 4 3 4 5 6 6 5 6 7 7 4 4 2 2 5 3 1 2 4 1 5 5 10
8 6 5 7 7 6 5 5 5 4 4 3 3 2 2 2 2 0 2 3 4 3 4 4 4 5 5 8 6 7 7 4 4 4 5 4 3 2 2 2 2 7 7
Wind_Direction
146 143 149 151 147 139 136 132 117 106 105 100 99 97 101 99 100 88 79 74 83 79 88 91 90 87 83 81 78 76 73 70 71 74 75 64 57 62 54 34 40 51 46
145 147 150 151 149 146 134 130 114 109 107 105 103 106 113 115 95 86 82 83 81 91 90 92 90 85 80 79 76 72 71 70 65 80 90 89 55 80 62 48 39 43 48
140 143 156 150 148 144 129 123 114 114 110 107 110 116 114 106 97 90 85 88 92 92 93 94 87 82 80 78 75 69 70 72 76 311 177 81 57 86 71 60 46 36 57
142 146 151 149 146 136 126 124 122 118 112 112 115 124 124 111 103 92 90 93 96 95 95 93 86 80 76 75 79 73 63 50 358 285 52 59 69 64 58 55 47 43 67
142 154 136 146 140 130 131 132 131 125 121 119 119 118 122 118 108 97 94 96 97 100 97 91 83 77 69 73 80 74 59 13 342 54 73 58 58 53 43 39 37 40 43
142 142 136 135 129 130 132 134 132 128 129 127 121 120 111 123 106 99 97 99 99 99 99 93 84 76 67 77 78 68 40 356 326 54 75 84 54 45 46 40 37 31 28
146 122 140 132 128 131 134 131 130 131 134 135 132 130 112 124 119 106 102 105 103 101 101 97 88 81 75 77 86 77 44 4 48 59 67 65 59 50 43 41 39 35 31
141 131 137 133 128 133 133 132 131 135 142 134 164 153 132 127 117 106 105 110 110 110 108 107 99 90 82 75 70 64 17 324 7 64 59 80 68 53 46 42 39 39 36
133 157 147 144 138 135 136 135 131 138 137 92 132 147 134 126 112 117 117 113 112 110 107 104 100 87 76 66 50 34 343 315 323 56 29 90 74 50 46 43 39 38 34
124 132 154 151 157 157 151 140 136 141 136 108 110 118 120 113 119 124 139 120 120 122 120 112 103 88 78 66 50 25 297 278 291 51 84 93 59 58 52 42 38 39 35
133 159 167 151 155 161 159 146 142 138 136 133 128 138 153 166 174 163 110 125 133 138 145 143 137 150 217 219 215 257 276 265 332 3 9 112 84 8 76 56 43 36 36
177 161 148 162 157 159 154 162 166 153 166 179 183 177 206 174 160 88 128 144 157 163 178 182 189 221 248 227 186 214 245 305 293 322 39 117 197 276 239 181 56 44 34
163 151 169 192 167 151 173 192 178 170 178 174 188 187 199 183 170 205 177 190 199 197 208 198 202 225 234 286 289 276 299 297 288 268 130 158 225 259 272 227 227 237 304
163 171 179 180 174 164 169 189 211 190 185 179 181 190 186 198 191 199 207 193 204 188 230 224 242 244 240 249 261 271 269 269 277 283 273 191 219 249 260 260 230 228 245
197 159 175 212 197 182 182 189 191 239 196 192 186 196 200 199 195 199 207 206 217 229 236 237 238 252 248 255 258 255 262 263 261 264 271 198 218 238 247 255 254 237 235
209 199 198 200 206 182 205 177 224 205 195 208 194 205 209 217 208 208 211 220 224 227 236 238 246 244 257 252 255 262 265 265 264 261 266 260 221 237 239 243 246 250 244
209 202 198 193 179 194 196 206 217 209 213 204 211 204 210 208 215 214 232 225 219 227 233 242 251 257 263 267 267 267 269 269 270 269 259 254 243 228 238 237 243 244 247
205 199 202 193 190 203 194 197 216 217 202 212 213 210 205 212 213 217 222 230 240 230 232 243 244 251 254 259 266 265 258 245 259 267 268 260 244 255 236 234 234 242 245
210 188 195 195 200 199 208 198 210 211 218 213 214 213 209 213 216 221 231 234 238 240 244 243 251 257 266 267 275 281 273 278 271 268 264 263 261 246 258 276 233 233 241
213 201 191 195 200 201 197 216 222 235 220 234 226 220 219 221 219 226 239 244 249 248 251 255 258 263 258 270 274 276 273 266 269 267 272 280 279 272 280 273 266 237 238
209 211 207 195 202 210 201 196 214 213 229 238 240 233 237 241 235 227 239 253 253 254 265 265 266 264 262 263 276 267 259 247 247 258 264 266 277 293 262 260 257 263 266
224 203 208 204 200 203 212 210 220 215 233 217 205 230 239 232 236 247 252 256 273 264 259 270 272 273 277 301 265 289 285 270 254 212 246 264 260 256 270 269 279 274 278
211 205 202 200 204 219 213 214 200 5 5 249 228 225 230 265 264 293 314 335 317 307 271 287 303 285 261 254 226 232 278 249 328 106 187 217 254 298 325 359 309 305 319
205 188 193 185 187 193 213 204 213 221 225 211 281 64 139 214 237 250 256 254 253 237 238 247 257 261 250 254 245 237 245 270 287 276 158 248 192 263 285 276 259 302 293
176 180 186 170 175 164 186 212 213 227 274 76 134 186 209 170 243 250 270 270 268 274 283 286 283 265 260 267 263 257 235 247 185 237 268 242 269 231 221 99 334 342 31
170 168 169 167 163 163 172 188 206 209 190 182 175 210 193 182 168 60 321 305 294 287 288 291 284 275 272 264 264 262 253 221 210 201 227 248 254 273 358 357 10 40 39